Regional Weather Roundup
Issued by NWS Portland, ME

Current Version | Previous Version | Text Only | Print | Product List | Glossary Off
Versions: 1 2 3 4 5 6 7 8 9 10 11 12 13 14 15 16 17 18 19 20 21 22 23 24 25 26 27 28 29 30 31 32 33 34 35 36 37 38 39 40 41 42 43 44 45 46 47 48 49 50
138 ASUS41 KGYX 202110 RWRGYX WEATHER ROUNDUP FOR MAINE AND NEW HAMPSHIRE NATIONAL WEATHER SERVICE GRAY ME 500 PM EDT WED SEP 20 2017 MEZ002-005-006-010-012-015-018-020-021-024-026-027-029-202200- MAINE CITY SKY/WX TMP DP RH WIND PRES REMARKS PORTLAND PTSUNNY 75 66 73 N8 29.92F SANFORD CLOUDY 71 69 93 N9 29.93S BAR HARBOR CLOUDY 74 66 76 N13 29.93F WISCASSET PTSUNNY 76 67 73 VRB5 29.93F ROCKLAND PTSUNNY 71 66 84 VRB7 29.92S FRYEBURG PTSUNNY 75 68 78 CALM 29.96S LEWISTONAUBURN PTSUNNY 74 67 78 N9 29.94F AUGUSTA MOSUNNY 74 65 73 N9 29.96S BANGOR CLOUDY 77 66 68 N10 29.95F GREENVILLE N/A 71 62 73 N6 30.01S MILLINOCKET CLOUDY 74 63 68 N7 30.01S HOULTON PTSUNNY 73 65 75 N13 30.00S PRESQUE ISLE MOSUNNY 75 59 57 N10 30.03F FRENCHVILLE SUNNY 72 42 34 N12G17 30.04F CARIBOU MOSUNNY 77 55 46 NE7 30.02S $$ NHZ002-005-008-009-011-012-014-202200- NEW HAMPSHIRE CITY SKY/WX TMP DP RH WIND PRES REMARKS PORTSMOUTH CLOUDY 72 67 82 N9 29.89S ROCHESTER CLOUDY 71 66 84 N9 29.92S NASHUA LGT RAIN 71 68 90 N10 29.92R MANCHESTER CLOUDY 73 66 78 N13 29.91S CONCORD PTSUNNY 76 65 68 N7 29.93S LACONIA CLOUDY 74 65 73 NE6 29.96R PLYMOUTH FAIR 76 62 62 CALM 29.94S BERLIN MOSUNNY 77 61 57 NE8 30.00F WHITEFIELD CLOUDY 77 60 55 E7 29.99F JAFFREY CLOUDY 71 66 84 VRB5 29.95F KEENE CLOUDY 76 64 66 NE15G21 29.93S LEBANON PTSUNNY 79 66 64 N6 29.94F MT WASHINGTON FOG 50 50 100 NE33 N/A VSB 1/16 $$ VTZ005-007-008-202200- VERMONT CITY SKY/WX TMP DP RH WIND PRES REMARKS ST JOHNSBURY N/A 79 64 60 MISG 29.96S MONTPELIER CLOUDY 76 65 68 N9 30.03S BURLINGTON CLOUDY 79 65 62 NW17 29.98S $$ MAZ007-012-024-CTZ003-RIZ002-NYZ038-NYZ072-202200- SOUTHERN NEW ENGLAND AND NY CITY SKY/WX TMP DP RH WIND PRES REMARKS BOSTON CLOUDY 68 67 96 N21G31 29.86R FOG WORCESTER CLOUDY 67 64 90 N15G24 29.91R NANTUCKET LGT RAIN 66 66 100 N31G41 29.64F FOG PROVIDENCE LGT RAIN 69 68 96 N20G32 29.83R HARTFORD CLOUDY 76 64 66 N15 29.88F ALBANY CLOUDY 77 63 61 N8 29.95R NEW YORK CITY CLOUDY 78 66 66 N14G23 29.88R $$ ANZ081-ANZ082-ANZ150-NHZ014-MEZ023>029-202200- COASTAL MARINE OBSERVATIONS STATION/POSITION TIME TEMP WIND PRES WAVE AIR SEA DIR/SP/G HT/PER (UTC) (F) (DEG/KT/KT) (MB) (FT/S) MOUNT DESERT ROC 2100 60 40/ 19/ 21 1013.0R MATINICUS ROCK 2100 60 40/ 16/ 18 1012.4S ISLE OF SHOALS 2100 68 10/ 21/ 23 1011.6F JEFFREYS LEDGE 2036 63 N/A 8/10 GEORGES BANK BUO 1950 76 67 1002.5 17/12 $$ .............KEY.............. WCI - WIND CHILL TC - TEMPERATURE IN CELSIUS VSB - VISIBILITY IN MILES HX - HEAT INDEX FAIR- INDICATES FEW OR NO CLOUDS BELOW 12,000 FT, WITH NO SIGNIFICANT WEATHER AND/OR OBSTRUCTIONS TO VISIBILITY.

USA.gov is the U.S. government's official web portal to all federal, state and local government web resources and services.